Precipitable_Water
1.31 1.62 1.67 1.70 1.68 1.70 1.62 1.54 1.56 1.55 1.54 1.57 1.58 1.53 1.42 1.30 1.20 1.20 1.18 1.17 1.16 1.15 1.14 1.08 1.03 1.01 1.00 0.98 0.97 0.97 0.99 0.99 0.99 1.01 1.05 1.10 1.15 1.19 1.24 1.30 1.28 1.27 1.33
0.95 1.13 1.28 1.47 1.65 1.78 1.77 1.68 1.62 1.57 1.55 1.56 1.55 1.56 1.52 1.45 1.37 1.24 1.24 1.18 1.22 1.23 1.21 1.18 1.11 1.04 1.05 1.04 1.01 0.98 0.98 1.00 1.01 1.01 1.04 1.10 1.18 1.28 1.34 1.33 1.28 1.33 1.33
0.70 0.82 0.97 1.11 1.31 1.59 1.73 1.75 1.74 1.74 1.63 1.61 1.55 1.58 1.57 1.52 1.47 1.38 1.23 1.21 1.22 1.26 1.24 1.25 1.23 1.17 1.10 1.11 1.09 1.07 1.03 1.03 1.04 1.04 1.06 1.11 1.22 1.32 1.34 1.33 1.33 1.26 1.21
0.59 0.62 0.67 0.79 0.99 1.21 1.44 1.71 1.60 1.62 1.64 1.66 1.60 1.58 1.56 1.56 1.52 1.46 1.39 1.28 1.27 1.25 1.27 1.25 1.25 1.21 1.16 1.11 1.14 1.14 1.12 1.09 1.09 1.10 1.08 1.11 1.21 1.33 1.34 1.34 1.23 1.20 1.21
0.44 0.48 0.55 0.61 0.73 0.86 1.01 1.30 1.64 1.60 1.51 1.57 1.61 1.64 1.62 1.58 1.56 1.53 1.43 1.40 1.35 1.34 1.31 1.25 1.22 1.22 1.18 1.14 1.11 1.12 1.13 1.15 1.16 1.17 1.16 1.15 1.20 1.33 1.35 1.28 1.20 1.21 1.18
0.44 0.44 0.44 0.46 0.57 0.65 0.76 0.94 1.13 1.38 1.62 1.58 1.63 1.51 1.55 1.61 1.64 1.58 1.50 1.47 1.44 1.43 1.39 1.35 1.25 1.19 1.16 1.17 1.15 1.09 1.07 1.09 1.14 1.15 1.18 1.18 1.22 1.33 1.37 1.32 1.25 1.21 1.17
0.50 0.48 0.45 0.45 0.46 0.48 0.60 0.72 0.85 0.97 1.15 1.30 1.45 1.51 1.56 1.53 1.53 1.60 1.60 1.52 1.48 1.46 1.46 1.43 1.37 1.28 1.20 1.18 1.17 1.15 1.09 1.04 1.06 1.13 1.17 1.18 1.21 1.30 1.43 1.36 1.30 1.25 1.20
0.55 0.53 0.51 0.48 0.47 0.44 0.45 0.54 0.69 0.74 0.85 1.06 1.05 1.08 1.11 1.42 1.46 1.47 1.56 1.53 1.53 1.53 1.46 1.43 1.42 1.38 1.33 1.24 1.16 1.13 1.16 1.05 1.01 1.05 1.10 1.13 1.20 1.26 1.35 1.41 1.36 1.28 1.23
0.65 0.63 0.61 0.57 0.53 0.51 0.45 0.45 0.51 0.63 0.65 0.80 0.93 0.93 0.84 0.82 1.04 1.41 1.52 1.51 1.53 1.55 1.50 1.45 1.42 1.41 1.42 1.40 1.36 1.19 1.26 1.15 1.09 1.07 1.11 1.17 1.18 1.23 1.29 1.36 1.42 1.32 1.29
0.73 0.74 0.71 0.69 0.64 0.60 0.53 0.50 0.51 0.53 0.66 0.65 0.81 0.89 0.92 0.88 0.80 0.87 1.23 1.37 1.49 1.50 1.54 1.51 1.44 1.41 1.38 1.39 1.48 1.42 1.26 1.11 1.15 1.20 1.14 1.29 1.19 1.18 1.24 1.28 1.41 1.37 1.33
0.72 0.73 0.73 0.73 0.70 0.69 0.67 0.63 0.59 0.58 0.56 0.63 0.72 0.74 0.78 0.82 0.85 0.79 0.77 0.99 1.23 1.38 1.52 1.50 1.49 1.44 1.38 1.32 1.29 1.36 1.45 1.28 1.18 1.18 1.14 1.11 1.21 1.18 1.22 1.26 1.33 1.37 1.37
0.66 0.63 0.64 0.64 0.65 0.67 0.69 0.70 0.69 0.66 0.65 0.67 0.65 0.76 0.75 0.66 0.65 0.68 0.71 0.78 0.91 1.05 1.27 1.35 1.39 1.34 1.37 1.35 1.32 1.33 1.35 1.36 1.38 1.20 1.21 1.17 1.19 1.17 1.21 1.23 1.27 1.34 1.35
0.70 0.67 0.63 0.59 0.63 0.65 0.64 0.67 0.69 0.67 0.66 0.65 0.71 0.73 0.78 0.82 0.87 0.77 0.70 0.66 0.70 0.86 0.98 1.14 1.21 1.26 1.31 1.29 1.29 1.32 1.35 1.36 1.36 1.34 1.29 1.17 1.23 1.16 1.21 1.22 1.22 1.23 1.28
0.81 0.76 0.72 0.67 0.68 0.69 0.67 0.67 0.66 0.70 0.73 0.68 0.67 0.73 0.86 0.84 0.83 0.86 0.81 0.76 0.70 0.72 0.79 0.84 1.03 1.11 1.13 1.28 1.25 1.21 1.26 1.29 1.31 1.34 1.28 1.25 1.27 1.27 1.22 1.27 1.27 1.19 1.17
0.83 0.78 0.74 0.71 0.69 0.67 0.66 0.66 0.66 0.67 0.74 0.76 0.74 0.71 0.71 0.82 0.89 0.84 0.86 0.88 0.82 0.66 0.67 0.77 0.87 1.03 1.10 1.20 1.16 1.23 1.22 1.26 1.27 1.30 1.34 1.31 1.22 1.28 1.24 1.30 1.25 1.26 1.22
0.80 0.77 0.69 0.62 0.60 0.59 0.61 0.65 0.66 0.67 0.69 0.73 0.77 0.76 0.74 0.72 0.82 0.85 0.82 0.84 0.87 0.83 0.75 0.86 0.92 1.01 1.06 1.09 1.22 1.24 1.22 1.23 1.27 1.30 1.30 1.26 1.24 1.31 1.33 1.32 1.35 1.32 1.25
0.71 0.62 0.54 0.51 0.51 0.51 0.54 0.56 0.56 0.66 0.70 0.70 0.72 0.75 0.74 0.72 0.72 0.81 0.81 0.81 0.82 0.86 0.84 0.91 1.05 1.13 1.09 1.08 1.12 1.23 1.22 1.21 1.21 1.24 1.23 1.27 1.28 1.28 1.30 1.33 1.32 1.31 1.26
0.71 0.60 0.56 0.57 0.53 0.53 0.58 0.59 0.59 0.61 0.67 0.71 0.72 0.73 0.72 0.74 0.72 0.77 0.78 0.76 0.78 0.85 0.87 0.87 1.02 1.04 1.07 1.13 1.10 1.08 1.11 1.16 1.19 1.19 1.14 1.10 1.15 1.20 1.21 1.19 1.24 1.30 1.28
0.66 0.66 0.65 0.64 0.60 0.60 0.63 0.67 0.64 0.62 0.66 0.73 0.74 0.69 0.69 0.73 0.70 0.73 0.75 0.75 0.78 0.82 0.88 0.85 0.85 0.98 0.99 1.04 1.04 1.06 1.01 1.01 1.09 1.15 1.15 1.11 1.09 1.15 1.18 1.21 1.34 1.40 1.35
0.73 0.74 0.71 0.68 0.66 0.65 0.66 0.68 0.72 0.72 0.73 0.72 0.75 0.73 0.73 0.73 0.69 0.69 0.69 0.70 0.75 0.77 0.80 0.83 0.86 0.88 0.92 1.00 1.02 0.93 0.88 0.89 0.92 1.04 1.09 1.16 1.26 1.30 1.32 1.32 1.32 1.33 1.31
0.78 0.80 0.78 0.71 0.71 0.69 0.72 0.71 0.74 0.76 0.76 0.73 0.74 0.77 0.77 0.74 0.74 0.72 0.70 0.70 0.74 0.78 0.82 0.79 0.79 0.80 0.80 0.83 0.80 0.78 0.74 0.76 0.95 0.95 0.93 0.99 1.17 1.24 1.29 1.38 1.40 1.40 1.39
0.84 0.84 0.85 0.76 0.69 0.69 0.71 0.73 0.74 0.75 0.76 0.73 0.68 0.70 0.73 0.75 0.78 0.81 0.81 0.82 0.80 0.79 0.76 0.71 0.70 0.71 0.70 0.71 0.80 0.73 0.68 0.67 0.60 0.94 0.88 0.86 0.95 1.03 1.13 1.26 1.31 1.33 1.42
0.70 0.80 0.80 0.84 0.79 0.74 0.69 0.69 0.73 0.74 0.75 0.75 0.73 0.70 0.70 0.76 0.82 0.84 0.84 0.87 0.90 0.92 0.90 0.84 0.76 0.75 0.75 0.81 0.79 0.76 0.73 0.71 0.71 0.86 0.94 0.82 0.90 0.81 0.89 1.02 1.11 1.15 1.25
0.55 0.59 0.72 0.81 0.82 0.80 0.78 0.76 0.73 0.73 0.72 0.75 0.79 0.78 0.78 0.81 0.84 0.82 0.84 0.88 0.94 0.92 0.90 0.95 0.93 0.89 0.86 0.91 0.88 0.89 0.84 0.85 0.85 0.93 1.03 0.81 0.99 0.93 1.05 1.15 1.23 1.23 1.22
0.38 0.42 0.47 0.65 0.77 0.83 0.83 0.80 0.78 0.72 0.70 0.71 0.77 0.80 0.82 0.83 0.88 0.84 0.82 0.81 0.80 0.80 0.83 0.87 0.87 0.83 0.87 0.87 0.89 0.89 0.77 0.75 0.78 0.87 0.97 0.93 0.99 0.93 1.02 1.08 1.17 1.14 1.16
0.28 0.30 0.31 0.36 0.55 0.69 0.82 0.86 0.81 0.79 0.69 0.69 0.73 0.76 0.78 0.79 0.81 0.81 0.78 0.74 0.71 0.74 0.78 0.78 0.79 0.89 0.81 0.79 0.80 0.84 0.84 0.84 0.86 0.89 0.98 0.94 0.96 0.97 0.86 0.96 0.99 1.00 1.00
Wind_Speed
32 32 32 33 33 33 32 31 31 30 29 28 27 25 24 23 22 20 19 18 18 18 18 18 17 17 17 17 16 16 15 15 14 14 14 13 13 13 13 14 14 15 15
36 36 36 35 35 36 36 35 34 33 32 32 31 30 28 27 26 25 23 22 20 20 19 19 19 19 19 19 18 18 17 17 16 16 16 15 15 15 15 15 15 16 16
40 40 39 39 38 38 39 39 38 37 36 35 35 33 32 31 29 28 27 26 23 23 22 21 20 20 20 20 20 20 19 19 18 18 18 17 17 16 17 17 17 16 16
44 44 43 43 42 41 40 39 41 40 39 38 37 37 36 35 34 32 31 29 28 26 25 24 23 21 21 20 20 21 21 21 20 20 19 19 18 18 18 18 17 16 16
47 48 47 47 46 45 44 43 40 42 43 42 41 40 39 39 38 37 35 34 32 30 28 27 26 25 24 23 22 21 21 21 21 21 21 20 20 20 19 18 18 17 16
49 50 50 51 50 50 49 48 47 45 39 43 45 44 43 42 41 40 38 37 36 34 32 30 29 28 27 26 25 24 24 23 23 22 22 22 21 21 20 20 19 19 18
51 52 53 53 53 54 54 53 52 51 49 47 43 38 45 45 44 43 41 40 38 37 36 34 32 30 29 28 27 27 26 26 25 24 24 23 22 22 21 22 21 20 19
55 55 55 55 55 56 57 57 56 55 55 52 49 46 43 37 46 46 45 43 41 40 39 38 36 34 32 30 30 29 28 27 27 26 26 25 25 24 23 23 22 22 21
54 55 56 56 57 57 58 59 59 59 57 56 56 52 46 47 43 39 45 46 44 42 42 41 39 38 36 34 33 31 31 29 28 28 27 27 27 27 26 25 24 23 23
50 52 54 55 56 57 59 59 60 61 60 60 58 59 58 52 47 44 45 44 45 44 44 41 40 40 39 39 36 35 33 33 31 31 29 28 28 28 27 27 26 26 25
45 47 49 51 52 53 55 58 59 59 61 61 61 59 60 58 55 52 49 45 45 47 43 43 42 42 41 41 40 39 37 36 35 33 32 32 31 30 29 29 28 28 27
41 43 44 46 47 49 50 52 55 57 57 58 59 59 59 59 59 56 54 52 49 47 47 46 46 44 43 42 41 40 40 39 38 38 36 35 33 32 32 31 31 30 30
39 40 42 44 46 48 49 50 52 54 56 57 56 56 58 58 57 59 58 56 54 52 50 50 48 47 45 45 43 42 41 40 40 40 39 37 36 35 33 33 33 33 32
37 38 40 43 44 46 48 50 51 53 54 56 57 56 55 54 56 57 57 57 55 55 54 53 50 49 47 45 44 44 43 43 42 41 42 42 40 39 38 36 36 35 35
32 33 33 35 38 41 44 47 50 52 53 54 55 56 57 55 54 54 56 57 56 55 55 53 52 50 48 48 47 46 45 44 43 43 42 43 43 41 40 40 39 38 37
24 26 29 31 34 39 43 45 47 49 50 50 51 52 53 55 53 52 52 53 55 56 54 52 52 51 49 48 47 46 46 45 43 43 43 43 43 43 42 41 41 40 39
21 23 26 29 32 34 36 42 47 48 47 47 47 47 48 49 49 49 49 51 51 52 53 53 51 49 48 47 46 45 44 44 44 44 45 44 45 44 42 43 43 42 41
23 24 26 27 27 28 29 32 36 41 45 44 43 42 42 43 45 45 45 47 49 49 50 50 48 48 47 45 45 46 46 45 45 45 44 45 45 45 45 45 44 43 43
23 23 24 24 24 24 24 23 22 28 34 39 38 37 37 38 40 41 43 44 46 47 48 49 48 46 45 44 43 42 42 43 43 44 43 43 44 45 45 45 45 45 44
23 22 22 21 21 20 18 16 14 15 21 29 32 34 34 34 35 36 38 40 41 44 45 46 47 46 44 42 42 42 41 40 40 39 40 41 40 40 42 44 44 45 47
22 21 20 20 18 16 15 14 12 11 13 19 24 28 31 32 33 34 34 34 37 38 40 42 43 44 44 42 41 41 42 41 41 41 40 40 40 40 41 42 44 45 46
23 22 20 19 17 15 15 13 11 10 10 13 19 22 25 27 29 31 31 32 33 35 36 37 39 41 41 40 39 38 38 38 38 38 39 40 41 43 43 41 41 42 41
22 23 22 19 17 16 16 14 13 11 11 12 15 18 21 23 25 26 28 29 30 32 33 34 35 36 37 37 37 36 36 36 37 37 37 37 38 40 41 41 42 42 41
21 22 23 21 18 17 17 16 14 13 13 13 13 15 16 18 19 21 22 23 24 24 27 30 31 31 31 33 34 34 35 36 36 36 36 36 35 37 36 36 37 38 38
21 21 21 22 22 18 18 16 14 14 12 10 10 12 14 15 17 19 20 20 21 21 21 23 24 26 27 29 31 33 33 33 32 32 33 33 32 32 33 33 34 33 32
20 20 20 20 19 20 21 16 11 7 7 9 10 10 11 13 14 16 18 20 20 20 20 20 22 22 24 25 25 25 28 29 29 29 29 29 29 27 26 25 25 26 29
Wind_Direction
264 265 265 263 262 261 260 260 259 259 258 257 256 256 255 255 257 257 258 260 256 256 255 254 254 254 255 256 258 259 262 266 270 274 278 283 288 293 299 305 310 314 317
264 264 264 264 264 262 260 259 259 258 257 256 255 254 254 255 256 256 256 258 257 255 255 255 255 256 256 257 258 260 262 265 268 272 276 279 283 287 293 298 304 307 309
264 264 264 263 263 263 261 259 257 257 256 255 254 254 254 254 254 255 255 254 256 254 254 255 256 256 256 257 258 260 262 264 267 270 274 277 279 283 288 293 297 302 304
264 263 263 262 262 261 261 259 257 256 255 255 254 253 253 254 254 253 254 253 254 254 253 254 254 256 256 257 259 260 261 262 265 268 271 274 277 280 284 289 292 295 298
264 263 262 262 261 260 259 258 258 256 254 254 253 253 253 253 253 253 252 252 252 253 252 253 253 254 256 258 258 260 261 262 265 267 269 272 274 277 281 283 288 290 293
265 264 263 262 260 259 258 257 256 255 257 255 254 252 253 253 253 252 250 250 250 250 250 251 253 254 255 257 257 259 261 262 264 268 268 269 272 274 277 280 282 285 287
265 264 263 262 260 258 257 256 255 255 254 253 254 257 252 252 250 251 250 249 249 249 249 250 252 253 255 255 257 259 260 261 263 266 267 267 268 271 276 278 277 280 281
264 264 263 262 261 259 257 255 254 254 253 252 252 252 254 253 251 249 249 249 248 248 248 249 250 252 253 255 257 258 258 261 262 263 265 265 267 270 273 275 274 276 276
265 264 263 262 261 259 257 256 254 253 253 251 249 249 251 251 253 252 248 248 247 247 248 247 249 250 252 255 256 257 257 259 260 262 264 266 265 268 271 272 270 273 273
267 265 264 263 261 260 258 257 255 253 252 251 250 248 249 251 250 251 249 249 247 247 244 246 249 248 251 253 255 257 257 258 259 261 263 265 266 267 268 269 267 270 271
269 267 265 264 262 261 259 257 255 253 251 250 249 249 248 249 249 249 249 249 248 246 247 246 247 249 252 253 255 255 256 257 258 259 262 264 264 266 267 268 268 268 270
272 269 267 265 264 262 260 258 255 252 251 250 249 248 248 247 247 247 248 248 248 248 247 247 246 250 251 253 255 254 256 257 257 260 260 262 263 264 265 267 267 267 268
276 272 270 268 265 264 262 260 255 252 250 249 249 249 249 248 248 247 247 248 247 248 248 248 248 249 251 253 254 254 256 257 258 259 258 260 261 264 265 266 266 266 267
277 276 275 271 269 267 263 260 257 253 251 250 249 248 248 248 247 247 247 247 248 248 248 248 248 249 251 251 253 255 256 257 259 259 258 258 261 263 264 265 265 265 266
282 279 279 276 274 271 267 262 258 255 252 250 249 248 247 248 248 247 247 246 246 248 248 247 248 249 250 252 254 254 256 257 257 258 259 259 260 261 263 263 264 264 265
292 287 285 281 282 277 271 265 260 255 251 249 247 246 246 245 247 247 247 246 245 246 249 248 247 248 250 251 252 254 255 255 257 258 259 259 260 260 264 262 262 263 264
302 297 297 293 291 287 280 270 260 254 250 247 246 245 244 243 244 245 246 245 245 245 246 247 248 248 248 250 251 252 253 256 257 259 259 260 261 260 262 262 261 262 263
311 307 304 303 300 300 294 283 264 253 247 244 244 244 243 242 242 244 245 245 245 244 244 245 246 246 248 249 252 253 255 256 258 260 260 261 260 260 261 264 261 261 263
322 316 313 310 307 306 307 302 276 255 245 240 240 241 242 240 242 243 245 246 245 244 244 244 246 246 248 249 251 253 255 256 258 260 262 263 261 260 261 261 260 261 262
334 330 325 320 317 315 316 313 299 268 248 238 238 238 239 240 241 244 245 246 245 243 243 243 243 245 247 248 250 253 255 256 257 260 261 261 262 261 262 262 262 262 264
339 337 333 332 329 325 323 316 307 283 260 240 237 239 240 242 244 245 246 245 243 243 243 242 244 245 247 249 251 254 255 256 257 260 261 262 262 262 264 264 265 266 264
348 344 338 334 335 328 325 318 308 292 268 250 243 243 242 243 245 244 245 245 244 243 243 243 244 245 247 249 251 253 254 256 257 258 260 263 262 264 264 265 266 267 265
348 349 345 337 332 327 325 314 303 292 272 261 253 247 245 245 246 243 244 246 246 246 244 243 244 245 247 249 250 252 253 255 257 259 261 264 265 265 264 265 266 267 266
352 351 355 349 337 327 321 317 301 284 272 265 256 252 247 244 241 241 243 246 244 244 244 243 245 246 248 250 251 253 255 258 258 260 263 266 267 266 264 266 269 268 266
351 354 354 356 1 349 337 318 306 278 267 261 257 251 247 246 245 243 244 243 242 244 244 242 243 246 251 254 255 255 256 256 259 259 263 264 269 267 266 267 270 269 268
345 348 352 354 356 2 3 354 331 303 258 253 255 254 255 252 252 250 247 243 243 244 240 244 246 250 254 256 255 255 257 256 256 259 262 263 266 268 266 264 266 268 270